Regional Weather Roundup
Issued by NWS Charleston, SC

Current Version | Previous Version | Graphics & Text | Print | Product List | Glossary On
Versions: 1 2 3 4 5 6 7 8 9 10 11 12 13 14 15 16 17 18 19 20 21 22 23 24 25 26 27 28 29 30 31 32 33 34 35 36 37 38 39 40 41 42 43 44 45 46 47 48 49 50
000 ASUS42 KCHS 270612 RWRCHS REGIONAL WEATHER ROUNDUP NATIONAL WEATHER SERVICE CHARLESTON SC 200 AM EDT TUE JUN 27 2017 NOTE: "FAIR" INDICATES FEW OR NO CLOUDS BELOW 12,000 FEET WITH NO SIGNIFICANT WEATHER AND/OR OBSTRUCTIONS TO VISIBILITY. NOT ALL STATIONS ARE QUALITY CONTROLLED. USE DATA WITH CAUTION... ESPECIALLY DEWPOINT OBSERVATIONS. SCZ027-030-031-034>040-042>050-270700- ...SOUTHEAST SOUTH CAROLINA... CITY SKY/WX TMP DP RH WIND PRES REMARKS N CHARLESTON CLOUDY 71 66 84 CALM 30.03F 6HR MIN TEMP: 70; 6HR MAX TEMP: 81; WATERFRONT PRK N/A 79 70 74 CALM 30.01F JOHNS ISLAND FAIR 72 70 94 CALM 30.03S PINOPOLIS N/A 73 64 73 VRB2 29.96S MONCKS CORNER FAIR 66 66 100 CALM 30.03F SUMMERVILLE FAIR 68 66 94 CALM 30.04F BEAUFORT MCAS CLOUDY 74 73 97 CALM 30.03F 6HR MIN TEMP: 73; 6HR MAX TEMP: 81; BEAUFORT ARPT FAIR 75 72 88 CALM 30.02F HILTON HEAD IS CLOUDY 75 73 94 CALM 30.03F WALTERBORO CLOUDY 68 66 94 CALM 30.04F ALLENDALE FAIR 72 70 94 CALM 30.03F ...SOUTHERN MIDLANDS AND PEE DEE... CITY SKY/WX TMP DP RH WIND PRES REMARKS GEORGETOWN FAIR 64 64 100 CALM 30.04F KINGSTREE FAIR 64 63 94 CALM 30.03F ORANGEBURG PTCLDY 66 65 96 CALM 30.04F 6HR MIN TEMP: 66; 6HR MAX TEMP: 81; BARNWELL FAIR 68 66 94 CALM 30.04F AIKEN FAIR 63 61 94 CALM 30.08F MANNING FAIR 64 63 94 CALM 30.04S COLUMBIA PTCLDY 69 62 78 W5 30.03F 6HR MIN TEMP: 68; 6HR MAX TEMP: 84; SUMTER CLEAR 71 61 71 CALM 30.01F 6HR MIN TEMP: 71; 6HR MAX TEMP: 82; FLORENCE CLEAR 69 64 84 CALM 30.03F 6HR MIN TEMP: 67; 6HR MAX TEMP: 84; 6HR PCP: TRACE; MYRTLE BEACH CLOUDY 69 65 86 CALM 30.04S N MYRTLE BEACH PTCLDY 66 65 96 CALM 30.02F 6HR MIN TEMP: 66; 6HR MAX TEMP: 80; $$ GAZ063-065-086>088-099>101-113>116-118-119-134>141-150-270700- ...SOUTHEAST GEORGIA... CITY SKY/WX TMP DP RH WIND PRES REMARKS SAVANNAH ARPT CLOUDY 74 72 93 N3 30.03F FOG 6HR MIN TEMP: 74; 6HR MAX TEMP: 81; HUNTER AAF PTCLDY 74 73 98 CALM 30.00F 6HR MIN TEMP: 74; 6HR MAX TEMP: 79; 6HR PCP: TRACE; FORT STEWART CLOUDY 73 71 95 CALM 30.00F 6HR MIN TEMP: 73; 6HR MAX TEMP: 79; STATESBORO CLOUDY 72 32 23 CALM 30.04F SYLVANIA PTCLDY 72 72 100 CALM 30.05F CLAXTON FAIR 71 70 99 CALM 30.04F FOG ...CSRA...CENTRAL AND FAR SOUTHEAST GEORGIA... CITY SKY/WX TMP DP RH WIND PRES REMARKS THOMSON CLEAR 65 64 94 CALM 30.11S AUGUSTA-BUSH CLEAR 67 64 90 CALM 30.04F 6HR MIN TEMP: 66; 6HR MAX TEMP: 82; AUGUSTA-DANIEL CLEAR 75 59 57 CALM 30.06F SWAINSBORO FAIR 70 70 100 CALM 30.06S VIDALIA PTCLDY 73 72 94 CALM 30.04F EASTMAN FAIR 69 69 100 CALM 30.07F HAZLEHURST FAIR 74 74 100 CALM 30.02F ALMA CLOUDY 71 70 96 CALM 30.03F 6HR MIN TEMP: 70; 6HR MAX TEMP: 79; WAYCROSS CLOUDY 74 74 100 CALM 30.03F JESUP MOCLDY 72 68 88 CALM 30.03S BAXLEY MOCLDY 72 72 100 CALM 30.03F BRUNSWICK MOCLDY 75 75 100 CALM 30.03F FOG SAINT SIMONS CLEAR 77 75 93 CALM 30.02S 6HR MIN TEMP: 77; 6HR MAX TEMP: 79; 6HR PCP: 0.01; $$ SCZ027-028-034-036>038-045-046-048>050-GAZ119-141-270700- ...LAKE AND SUPPLEMENTAL COASTAL OBSERVATIONS... STATION/POSITION TIME TEMP WIND PRES WAVE SWELL AIR SEA DIR/SP/G HT/PER HT/PER/DIR (UTC) (F) (DEG/KT/KT) (MB) (FT/S) (FT/S/D) WINYAH BAY 0445 69 300/ 1 1017.0 LAKE MURRAY 0520 75 CALM / 2 1016.6S ACE BASIN NERRS 0445 73 CALM 1018.0 FORT PULASKI 0548 78 84 140/ 2/ 2 1016.8F SAPELO ISLAND 0500 75 CALM 1017.0 $$ ANZ835-935-AMZ111-154-330-350-352-354-370-450-454-472-270700- ...C-MAN AND BUOY OBSERVATIONS... STATION/POSITION TIME TEMP WIND PRES WAVE SWELL AIR SEA DIR/SP/G HT/PER HT/PER/DIR (UTC) (F) (DEG/KT/KT) (MB) (FT/S) (FT/S/D) BUOY 41004 0550 79 81 60/ 4/ 6 1016.1F 2/ 8 2/110/ 8 BUOY 41008 0550 79 82 CALM / 2 1016.1F 2/ 5 2/ 50/ 5 FOLLY BEACH CMAN 0500 80 80/ 5/ 6 1017.6 CAPERS NEARSHORE 0508 85 83 110/ 6/ 10 1016.8F FRIPP NEARSHORE 0508 79 83 120/ 6/ 8 1016.4F STATION/POSITION TIME TEMP WIND PRES WAVE SWELL AIR SEA DIR/SP/G HT/PER HT/PER/DIR (UTC) (F) (DEG/KT/KT) (MB) (FT/S) (FT/S/D) 5E ST. MARYS GA 0530 80 N/A 2/ 8 FRYING PAN BUOY 0550 78 80 50/ 6/ 6 1016.1F 2/ 8 2/130/ 8 BUOY 41025 0550 77 81 CALM / 2 1016.3F 2/ 8 2/120/ 8 CAPE LOOKOUT NC 0500 75 CALM 1016.4 BUOY 41002 0450 79 80 170/ 12/ 14 1016.7 3/ 6 2/100/ 8 BUOY 41010 0550 83 83 160/ 14/ 17 1016.5F 3/ 7 2/130/ 7 ST AUGUSTINE FL 0600 75 78 200/ 4/ 4 1016.4F $$

USA.gov is the U.S. government's official web portal to all federal, state and local government web resources and services.